This is the latest recevied weather packets stored in our database for station/object DM4XI-13. If no packets are shown the sender has not sent any weather packets the latest 10 day(s).
| Time | Temp. | Humidity | Pressure | Rain* | Wind** | Luminosity | Snow |
|---|---|---|---|---|---|---|---|
| 1777443920 | 9.44° C | 40% | 1020.4 hPa | 0 mm | 0.45 m/s, 187° | 182 W/m² | - |
| 1777443859 | 9.44° C | 39% | 1020.5 hPa | 0 mm | 0.89 m/s, 103° | 192 W/m² | - |
| 1777443798 | 9.44° C | 39% | 1020.4 hPa | 0 mm | 0.89 m/s, 219° | 189 W/m² | - |
| 1777443737 | 10° C | 39% | 1020.5 hPa | 0 mm | 1.34 m/s, 131° | 187 W/m² | - |
| 1777443676 | 10° C | 39% | 1020.4 hPa | 0 mm | 1.79 m/s, 1° | 185 W/m² | - |
| 1777443615 | 10° C | 39% | 1020.3 hPa | 0 mm | 1.79 m/s, 11° | 183 W/m² | - |
| 1777443554 | 9.44° C | 40% | 1020.3 hPa | 0 mm | 1.79 m/s, 213° | 179 W/m² | - |
| 1777443493 | 9.44° C | 40% | 1020.3 hPa | 0 mm | 0.89 m/s, 9° | 178 W/m² | - |
| 1777443432 | 9.44° C | 40% | 1020.2 hPa | 0 mm | 0.45 m/s, 116° | 182 W/m² | - |
| 1777443371 | 9.44° C | 40% | 1020.2 hPa | 0 mm | 0 m/s | 173 W/m² | - |
| 1777443310 | 9.44° C | 39% | 1020.3 hPa | 0 mm | 0.45 m/s, 191° | 171 W/m² | - |
| 1777443249 | 9.44° C | 41% | 1020.3 hPa | 0 mm | 0.89 m/s, 148° | 169 W/m² | - |
| 1777443188 | 9.44° C | 40% | 1020.5 hPa | 0 mm | 1.34 m/s, 29° | 168 W/m² | - |
| 1777443127 | 8.89° C | 40% | 1020.4 hPa | 0 mm | 1.34 m/s, 49° | 166 W/m² | - |
| 1777443066 | 8.89° C | 40% | 1020.4 hPa | 0 mm | 0.45 m/s, 193° | 163 W/m² | - |
| 1777443005 | 8.89° C | 41% | 1020.4 hPa | 0 mm | 1.79 m/s, 253° | 161 W/m² | - |
| 1777442944 | 9.44° C | 41% | 1020.5 hPa | 0 mm | 0.89 m/s, 21° | 159 W/m² | - |
| 1777442883 | 9.44° C | 40% | 1020.1 hPa | 0 mm | 1.79 m/s, 9° | 158 W/m² | - |
| 1777442822 | 9.44° C | 40% | 1020.3 hPa | 0 mm | 0.89 m/s, 285° | 155 W/m² | - |
| 1777442760 | 8.89° C | 41% | 1020.3 hPa | 0 mm | 1.34 m/s, 11° | 153 W/m² | - |
| 1777442699 | 8.89° C | 42% | 1020.2 hPa | 0 mm | 0.45 m/s, 24° | 151 W/m² | - |
| 1777442639 | 8.89° C | 41% | 1020.2 hPa | 0 mm | 0.89 m/s, 179° | 149 W/m² | - |
| 1777442578 | 8.89° C | 42% | 1020.2 hPa | 0 mm | 0.89 m/s, 345° | 147 W/m² | - |
| 1777442517 | 8.89° C | 42% | 1020.2 hPa | 0 mm | 0 m/s | 145 W/m² | - |
| 1777442456 | 8.89° C | 42% | 1020.4 hPa | 0 mm | 0.89 m/s, 53° | 142 W/m² | - |
* Rain latest hour (hover to see other rain measurements)
** Current wind speed in m/s (hover to see current wind gust speed)